Reflectivity
-20 -20 -20 -20 -20 -20 -20 -20 -20 -20 -20 -20 -20 -20 -20 -20 -20 -20 -20 -20 -20 -20 -20 -20 -20 -20 -20 -20 -20 -20 -20 -20 -20 -20 -20 -20 -20 -20 -20 -20 -20 -20 -20 -20 -20
-20 -20 -20 -20 -20 -20 -20 -20 -20 -20 -20 -20 -20 -20 -20 -19 -20 -20 -20 -20 -20 -20 -20 -20 -20 -20 -20 -20 -20 -20 -20 -20 -20 -20 -20 -20 -20 -20 -20 -20 -20 -20 -20 -20 -20
-20 -20 -20 -20 -20 -20 -20 -20 -20 -20 -20 -20 -20 -20 -20 -20 -20 -20 -20 -20 -20 -20 -20 -20 -20 -20 -20 -20 -20 -20 -20 -20 -20 -20 -20 -20 -20 -20 -20 -20 -20 -20 -20 -20 -20
-20 -20 -20 -20 -20 -20 -20 -20 -20 -20 -20 -20 -20 -20 -20 -20 -20 -20 -20 -20 -20 -20 -20 -20 -20 -20 -20 -20 -20 -20 -20 -20 -20 -20 -20 -20 -20 -20 -20 -20 -20 -20 -20 -20 -20
-20 -20 -20 -20 -20 -20 -20 -20 -20 -20 -20 -20 -20 -20 -20 -20 -20 -20 -20 -20 -20 -20 -20 -20 -20 -20 -20 -20 -20 -20 -20 -20 -20 -20 -20 -20 -20 -20 -20 -20 -20 -20 -20 -20 -20
-20 -20 -20 -20 -20 -20 -20 -20 -20 -20 -20 -20 -17 -8 -20 -20 -20 -20 -20 -20 -20 -20 -20 -20 -20 -20 -20 -20 -20 -20 -20 -20 -20 -20 -20 -20 -20 -20 -20 -20 -20 -20 -20 -20 -20
-20 -20 -20 -20 -20 -20 -20 -20 -20 -20 -9 -14 14 -19 -20 -20 -20 -20 -20 -20 -20 -20 -20 -20 -20 -20 -20 -20 -20 -20 -20 -20 -20 -20 -20 -20 -20 -20 -20 -20 -20 -20 -20 -20 -20
-20 -20 -20 -20 -20 -20 -20 -20 -20 -20 -4 13 16 -20 -20 -20 -20 -20 -20 -20 -20 -20 -20 -20 -20 -20 -20 -20 -20 -20 -20 -20 -20 -20 -20 -20 -20 -20 -20 -20 -20 -20 -20 -20 -20
-20 -20 -20 -20 -20 -20 -20 -20 -20 -20 -20 -20 -20 -20 -20 -20 -20 -20 -20 -20 -20 -20 -20 -20 -20 -20 -20 -20 -20 -20 -20 -20 -20 -20 -20 -20 -20 -20 -20 -20 -20 -20 -20 -20 -20
-20 -20 -20 -20 -20 -20 -20 -20 -20 -20 -20 -20 -20 -20 -20 -20 -20 -20 -20 -20 -20 -20 -20 -20 -20 -20 -20 -20 -20 -20 -20 -20 -20 -20 -20 -20 -20 -20 -20 -20 -20 -20 -20 -20 -20
-20 -20 -20 -20 -20 -20 -20 -20 -20 -20 -20 -20 -20 -20 -20 -20 -20 -20 -20 -20 -20 -20 -20 -20 -20 -20 -20 -20 -20 -20 -20 -20 -20 -20 -20 -20 -20 -20 -20 -20 -20 -20 -20 -20 -20
-20 -20 -20 -20 -20 -20 -20 -20 -20 -20 -20 -20 -20 -20 -20 -20 -20 -20 -20 -20 -20 -20 -20 -20 -20 -20 -20 -20 -20 -20 -20 -20 -20 -20 -20 -20 -20 -20 -20 -20 -20 -20 -20 -20 -20
-20 -20 -20 -20 -20 -20 -20 -20 -20 -20 -20 -20 -20 -20 -20 -20 -20 -20 -20 -20 -20 -20 -20 -20 -20 -20 -20 -20 -20 -20 -20 -20 -20 -20 -20 -20 -20 -20 -20 -20 -20 -20 -20 -20 -20
-20 -20 -20 -20 -20 -20 -20 -20 -20 -20 -20 -20 -20 -20 -20 -20 -20 -20 -20 -20 -20 -20 -20 -20 -20 -20 -20 -20 -20 -20 -20 -20 -20 -20 -20 -20 -20 -20 -20 -20 -20 -20 -20 -20 -20
-20 -20 -20 -20 -20 -20 -20 -20 -20 -20 -20 -20 -20 -20 -20 -20 -20 -20 -20 -20 -20 -20 -20 -20 -20 -20 -20 -20 -20 -20 -20 -20 -20 -20 -20 -20 -20 -20 0 -5 -20 -20 -20 -20 -20
-20 -20 -20 -20 -20 -20 -20 -20 -20 -20 -20 -20 -20 -20 -20 -20 -20 -20 -20 -20 -20 -20 -20 -20 -20 -20 -20 -20 -20 -20 -20 -20 -20 -20 -20 -20 -20 -20 -20 -19 -20 -20 -20 -20 -20
-20 -20 -20 -20 -20 -20 -20 -20 -20 -20 -20 -20 -20 -20 -20 -20 -20 -20 -20 -20 -20 -20 -20 -20 -20 -20 -20 -20 -20 -20 -20 7 -20 -20 -20 -20 -20 -20 -18 -20 -20 -20 -20 -20 -20
-20 -20 -20 -20 -20 -20 -20 -20 -20 -20 -20 -20 -20 -20 -20 -20 -20 -20 -20 -20 -20 -20 -20 -20 -20 -20 -20 -20 -20 -20 1 12 10 15 13 6 8 19 15 10 6 1 6 -14 -20
-20 -20 -20 -20 -20 -20 -20 -20 -20 -20 -20 -20 -20 -20 -20 -20 -20 -20 -20 -20 -20 -20 -20 -20 -20 -20 -20 -20 -20 -20 -3 10 17 -17 -20 -20 -20 9 20 26 10 -1 7 -3 -20
-20 -20 -20 -20 -20 -20 -20 -20 -20 -20 -20 -20 -20 -20 -20 -20 -20 -20 -20 -20 -20 -20 -20 -18 -20 -20 -20 -20 -20 -20 -18 -13 -20 7 -1 -20 -16 -3 17 21 33 33 26 16 -16
-20 -20 -20 -20 -20 -20 -20 -20 -20 -20 -20 -20 -20 -20 -20 -20 -20 -20 -20 -20 -20 -20 -20 -20 -20 -20 -20 -20 -20 -20 -20 -20 -16 7 15 -19 26 27 15 12 15 16 8 22 21
-20 -20 -20 -20 -20 -20 -20 -20 -20 -20 -20 -20 -20 -20 -20 -20 -20 -20 -20 -20 -20 -20 -20 -20 -20 -20 -20 -20 -20 -20 -20 -20 -20 -20 -20 -19 16 14 14 13 12 20 16 7 3
-20 -20 -20 -20 -20 -20 -20 -20 -20 -20 -20 -20 -20 -20 -20 -20 -20 -20 -20 -20 -20 -20 -20 -20 -20 -20 -20 -19 1 -19 -19 -20 -20 -20 -20 -17 20 11 16 16 8 -18 11 14 9
-20 -20 -20 -20 -20 -20 -20 -20 -20 -20 -20 -20 -20 -20 -20 -20 -20 -20 -20 -20 -20 -20 -20 -20 -20 -20 -20 -20 -20 -20 -20 -20 -20 -20 -20 -20 -20 -20 -20 -20 -3 15 2 13 18
-20 -20 -20 -20 -20 -20 -20 -20 -20 -20 -20 -20 -20 -20 -20 -6 -20 -20 -20 -20 -20 -20 -20 -20 -20 -20 -20 -20 -20 -20 -20 -20 -20 -20 -20 -17 10 -7 -20 -20 -20 -20 -12 -1 7
-20 -20 -20 -20 -20 -20 -20 -20 -20 -20 -20 -20 -20 -20 -20 5 8 5 -20 -20 -20 -20 -20 -20 -11 -20 -20 -20 -20 -20 -20 -20 -20 -14 -20 -20 -19 -20 -20 -20 -20 -20 -20 -20 -20
-20 -20 -20 -20 -20 -20 -20 -20 -20 -20 -20 -20 -20 -20 -20 2 -14 -20 -20 -20 -20 -1 -20 -20 -20 -12 -20 -20 -20 -14 -20 -18 -1 -20 -20 -19 -6 -18 -20 -20 -20 -20 -20 -20 -20
Wind_Speed
16 16 16 16 16 16 16 15 15 15 15 14 14 14 15 14 13 2 6 7 6 10 5 2 2 3 2 2 2 3 3 3 6 6 4 1 1 3 2 4 3 5 6 6 4
16 17 17 17 17 17 16 16 15 15 15 15 14 13 14 14 3 6 7 5 8 10 5 5 3 2 1 1 0 4 4 9 6 5 4 3 4 4 3 5 5 7 8 9 6
18 18 18 19 19 18 18 17 17 16 15 15 15 14 11 7 3 3 2 7 8 6 3 2 3 3 2 3 3 5 7 4 5 6 4 4 3 4 4 8 10 8 7 6 5
19 19 20 20 20 20 19 18 17 16 16 14 13 12 9 2 6 5 6 7 6 3 3 4 3 2 2 4 4 3 9 6 5 4 2 3 2 5 9 17 4 9 7 4 9
20 21 21 22 21 20 19 18 17 16 15 13 11 9 3 2 8 4 6 7 2 2 2 3 3 3 3 3 4 6 4 7 9 8 8 3 11 7 15 16 7 9 9 12 10
21 21 22 22 22 21 20 20 18 16 13 11 8 2 1 2 2 3 7 4 2 2 2 2 3 3 3 3 4 3 6 9 9 14 8 8 5 9 10 7 8 7 10 10 9
22 23 23 23 22 22 20 18 16 14 10 8 5 2 2 9 3 3 5 3 3 4 3 1 2 2 1 5 4 5 9 9 10 5 9 8 5 14 20 2 8 9 9 9 9
24 24 23 22 23 23 20 19 15 9 3 2 5 1 6 3 1 2 2 1 1 1 3 3 3 3 3 4 7 3 2 5 4 6 4 6 9 7 12 4 11 9 8 7 9
25 25 24 23 24 23 21 14 5 6 5 8 3 1 6 4 2 5 5 1 3 2 1 3 3 3 2 2 4 2 6 5 9 6 2 4 7 8 4 6 10 9 9 8 7
25 25 24 23 23 23 19 3 4 5 3 2 1 2 3 3 3 1 3 4 2 2 2 2 4 1 2 3 7 6 5 6 6 2 2 6 13 14 16 9 13 10 7 6 3
26 24 22 20 21 21 8 3 7 3 7 1 3 4 4 6 2 1 3 4 2 2 3 1 1 10 12 12 2 2 4 9 9 9 4 10 17 16 18 6 10 8 6 3 2
25 25 22 19 16 14 5 7 3 4 9 4 5 6 6 3 3 2 4 3 3 5 4 3 12 17 6 10 11 13 12 14 12 8 8 7 17 11 13 10 6 8 6 6 5
25 24 22 20 5 5 7 3 5 1 2 8 4 3 3 1 4 4 7 2 4 4 6 8 8 5 3 5 9 10 9 9 12 7 6 2 10 6 3 6 7 7 5 6 8
26 22 20 20 5 2 2 5 4 1 5 3 2 2 4 2 5 2 6 5 2 5 4 7 7 6 5 6 8 12 11 17 16 3 5 0 6 5 1 2 6 6 8 8 9
26 22 17 10 2 3 4 5 2 3 6 4 3 2 8 1 5 3 1 2 4 5 3 8 7 10 9 10 7 10 8 7 4 4 1 4 1 7 4 2 3 6 8 9 9
24 19 14 4 3 1 5 3 3 8 8 5 5 7 8 6 6 5 2 5 1 4 4 10 4 5 7 5 8 5 2 1 3 4 4 10 8 6 4 8 4 4 9 9 10
24 16 4 1 5 6 4 3 7 5 6 9 6 8 5 5 6 8 5 8 6 8 5 6 8 5 1 5 5 2 4 3 2 1 7 2 3 6 5 11 9 9 9 8 8
23 6 2 2 5 4 2 6 1 4 4 4 5 9 3 10 5 9 4 5 6 5 4 4 9 5 6 2 5 5 6 3 4 3 3 6 5 5 13 13 11 10 9 9 9
13 3 2 7 6 1 6 6 1 3 5 8 11 4 4 5 4 8 5 5 5 7 4 6 7 10 12 4 2 5 4 2 4 6 0 4 5 3 8 9 11 10 12 11 10
2 3 3 12 5 4 7 3 2 3 5 4 3 5 5 8 8 9 3 6 6 7 2 3 11 4 7 6 6 4 4 4 2 3 5 4 6 5 9 8 8 10 12 10 11
4 4 5 13 4 8 5 2 2 4 7 5 4 6 4 4 4 4 3 3 7 9 6 4 2 7 8 4 8 7 4 4 1 3 4 2 3 5 9 11 10 9 9 10 10
2 4 6 6 8 3 3 4 4 6 6 4 4 3 3 5 4 4 5 2 6 3 5 5 4 7 6 19 7 3 7 7 4 5 3 5 3 7 10 10 8 9 10 9 9
4 2 6 6 5 3 4 3 4 7 6 6 5 5 4 5 6 2 5 3 5 12 5 5 2 6 10 1 8 7 6 12 8 2 4 3 4 6 9 9 5 4 6 7 9
4 4 6 7 2 3 4 4 6 5 1 4 2 3 4 3 1 7 10 5 8 8 18 6 5 7 9 4 5 13 14 8 4 5 6 8 8 7 5 5 6 6 5 4 5
5 2 1 4 5 5 3 3 4 7 4 5 0 4 4 5 9 5 8 14 5 13 4 2 4 4 5 10 12 15 19 14 12 12 13 9 8 4 2 5 4 5 6 6 9
4 3 4 2 2 3 6 4 5 4 3 4 4 9 5 7 8 15 12 13 9 5 4 2 8 5 10 11 6 11 13 9 4 11 6 6 5 5 3 3 6 5 6 6 7
2 2 3 4 3 1 1 3 6 6 4 5 9 8 6 5 6 12 13 15 10 11 7 4 3 3 4 4 9 2 10 12 5 7 9 7 3 3 4 6 6 6 7 7 7
Wind_Direction
351 347 342 338 335 335 335 330 329 329 329 326 325 325 325 326 321 272 228 216 185 172 153 144 76 9 54 39 102 118 78 232 243 173 231 224 69 288 285 253 232 220 207 210 171
349 344 340 336 333 332 328 327 326 324 322 321 325 325 325 332 304 257 252 226 167 158 146 145 146 69 45 222 56 112 160 221 209 190 208 246 214 199 269 251 249 254 266 262 260
347 342 339 335 332 328 325 324 321 320 317 320 326 326 329 335 310 250 209 176 158 158 121 95 104 123 162 151 209 181 215 225 247 230 225 204 258 222 207 273 223 213 240 263 259
345 341 337 333 330 326 326 322 316 313 313 319 324 323 325 299 313 345 140 141 139 128 98 99 84 104 239 216 186 233 245 226 252 240 232 229 242 250 205 249 215 226 244 239 257
344 341 336 333 326 326 324 319 317 311 311 317 322 319 333 35 251 270 112 112 69 62 117 134 154 177 231 248 314 224 246 248 265 265 255 251 239 231 254 254 253 249 262 258 251
342 341 335 332 328 329 325 321 316 311 311 307 300 295 151 241 344 148 125 120 130 127 144 150 199 191 252 241 199 289 279 271 261 260 238 214 261 154 257 237 249 236 247 252 244
344 341 336 333 329 326 322 320 314 308 304 298 262 180 113 238 355 144 143 186 176 160 141 66 173 148 121 299 310 292 305 303 256 234 223 180 254 227 252 180 270 260 260 267 259
344 340 337 333 329 324 323 322 318 310 321 209 148 121 239 252 355 157 191 256 6 238 115 146 107 133 179 313 334 288 271 307 298 169 222 173 261 256 237 197 263 255 265 279 283
344 341 340 336 332 326 323 330 23 70 102 133 107 109 286 323 194 227 170 171 137 157 140 125 96 167 99 152 312 284 259 233 309 213 83 197 267 257 198 194 255 260 278 297 298
344 342 342 338 335 326 329 339 85 86 99 213 253 60 289 285 286 193 176 145 172 142 348 91 60 218 162 131 237 226 237 242 235 315 301 262 266 280 281 224 241 253 277 261 305
342 341 341 339 341 329 354 22 11 351 33 307 283 259 272 291 291 208 170 145 160 109 181 169 245 239 218 211 249 330 261 263 272 262 291 254 264 270 278 226 243 233 226 183 33
343 337 338 339 342 357 41 63 80 215 320 288 251 273 274 273 315 254 128 162 167 225 154 239 252 249 235 223 235 251 264 275 282 260 182 262 278 271 278 276 236 169 144 82 39
342 337 334 337 347 37 78 51 316 111 274 299 246 265 297 15 265 258 155 173 209 245 202 201 242 14 235 218 240 245 237 250 246 321 241 239 284 307 9 32 57 53 89 65 54
343 339 336 334 46 304 69 332 344 103 46 285 348 338 12 288 282 208 198 168 243 250 254 239 267 266 279 243 221 261 213 245 261 173 242 154 273 306 199 48 39 53 43 41 33
344 339 340 14 278 45 316 331 300 60 10 304 356 341 325 221 301 9 1 32 258 263 2 257 289 296 287 252 183 253 235 212 209 195 9 218 275 273 120 136 61 35 47 35 28
341 339 337 8 8 270 331 325 67 43 258 341 342 5 3 335 317 312 33 22 308 276 226 256 271 250 238 273 216 251 278 360 55 131 237 242 192 275 215 162 122 50 49 33 28
338 332 327 7 307 314 330 58 30 134 341 353 344 352 352 306 322 7 20 20 23 347 350 325 264 249 290 331 331 96 61 286 320 178 232 297 157 47 14 87 97 79 49 32 24
336 346 330 227 304 316 64 48 146 36 357 338 326 311 328 16 357 338 22 28 24 359 298 320 325 5 1 290 282 270 185 202 295 232 226 189 219 98 62 59 52 59 59 35 27
339 347 26 327 328 75 71 55 277 339 312 333 318 340 335 8 359 4 55 11 34 7 360 343 271 328 327 324 325 313 267 207 223 242 89 201 107 105 80 69 36 33 44 30 15
34 11 316 335 348 56 69 114 92 27 325 346 305 36 326 340 3 9 6 355 348 347 310 310 292 270 322 326 274 240 309 319 6 247 239 240 167 138 137 88 50 42 20 20 13
46 50 275 344 51 47 87 75 52 25 21 354 324 311 350 339 320 283 329 31 356 343 359 330 256 296 344 319 323 340 353 335 136 215 276 280 84 52 67 60 52 54 30 19 3
53 46 307 352 52 29 54 349 47 3 9 338 11 38 335 333 297 279 350 55 15 8 353 284 277 288 270 281 293 17 45 39 9 346 301 294 92 68 70 52 62 41 14 11 6
61 307 327 44 71 15 329 52 72 10 7 3 351 52 9 349 313 320 345 304 7 359 9 299 278 317 323 29 27 29 356 13 348 344 271 332 79 66 76 60 47 36 352 349 343
64 19 347 37 10 72 25 11 10 1 86 352 340 66 358 319 290 298 312 306 332 300 313 330 242 209 250 311 328 303 310 324 298 268 274 246 271 85 61 46 6 354 329 330 331
29 39 156 358 14 41 64 24 13 5 343 350 95 65 333 293 297 252 307 300 311 302 338 302 271 304 303 302 279 277 292 293 265 251 255 286 290 141 56 358 334 298 309 326 342
85 45 7 347 351 38 5 1 15 335 279 323 324 324 297 255 270 298 298 294 281 295 254 199 280 326 295 270 255 300 295 306 9 22 11 305 118 27 331 284 324 335 306 297 313
356 22 100 322 357 36 4 321 352 332 313 0 318 309 292 293 295 276 271 279 270 285 274 260 256 227 258 284 307 317 55 42 19 46 17 358 269 229 322 322 294 290 294 271 284